Other Surface Observations
Issued by NWS

Home | Current Version | Previous Version | Text Only | Print | Product List | Glossary On
Versions: 1 2 3 4 5 6 7 8 9 10 11 12 13 14 15 16 17 18 19 20 21 22 23 24 25 26 27 28 29 30 31 32 33 34 35 36 37 38 39 40 41 42 43 44 45 46 47 48 49 50
000
SXUS52 KTAE 240919
OSOTAE
OSOTAE
North Florida/South Alabama/Southwest Georgia Weather Roundup
National Weather Service Tallahassee Florida
500 AM EDT SAT JUN 24 2017

Note: "fair" indicates few or no clouds below 12,000 feet with no
significant weather and/or obstructions to visibility.

!FLZ017-115-028-034-025-241000
...North Florida...

CITY           SKY/WX    TMP DP  RH WIND       PRES   REMARKS
TALLAHASSEE    PTCLDY    74  74 100 NW3       30.01R
APALACHICOLA   PTCLDY    80  79  96 SW6       29.99S
PERRY          PTCLDY    72  71  97 CALM      30.00F FOG
CROSS CITY     CLEAR     72  70  94 CALM      30.01S
JACKSONVILLE   PTCLDY    75  75 100 SW3       29.99S
$$

!FLZ112-006-005-002-011-241000
...Florida Panhandle...

CITY           SKY/WX    TMP DP  RH WIND       PRES   REMARKS
MARIANNA       CLEAR     75  74  96 S6        29.98S
BONIFAY        NOT AVBL
PANAMA CITY NW FAIR      78  75  90 S6        29.98S
TYNDALL AFB    PTCLDY    79  74  84 SW7       30.00S
TYND DRONE APT FAIR      79  74  83 SW6       30.00R
DE FUNIAK SPR  PTSUNNY   74  74 100 CALM      30.00R FOG
EGLIN AFB      PTCLDY    80  75  87 SW7       29.99R
DESTIN         CLOUDY    82  81  96 SW8       29.98S HX  95
HURLBURT       DRIZZLE   81  73  78 SW8       29.97S
CRESTVIEW      PTCLDY    76  74  93 SW5       30.00R FOG
PENSACOLA      PTCLDY    81  76  84 SW8       29.98S
$$

!ALZ063-066-241000
...South Alabama...

CITY           SKY/WX    TMP DP  RH WIND       PRES   REMARKS
DOTHAN         CLOUDY    77  76  96 SW6       30.03R
OZARK CAIRNS   CLOUDY    76  75  95 S7        29.98S
FT RUCKER HELI CLOUDY    77  75  94 S7        29.98S
RUCKER HELI 3  CLOUDY    76  74  94 SW7       29.99R
RUCKER HELI 2  CLOUDY    76  75  96 CALM      29.98S
FLORALA APT    CLOUDY    77  74  90 SW9       30.00S
ANDALUSIA      CLOUDY    80  75  84 VRB5      29.99R
TROY           CLOUDY    75  75 100 S3        29.99S
EUFALA         CLOUDY    78  74  87 CALM      29.97S
MOBILE         CLOUDY    76  74  93 S6        29.98S
$$

!GAZ120>161-241000
...Southwest and South Central Georgia...

CITY           SKY/WX    TMP DP  RH WIND       PRES   REMARKS
THOMASVILLE    MOCLDY    77  77 100 W3        30.02S
BAINBRIDGE     CLEAR     81  79  94 CALM      30.00S
MOODY AFB      PTCLDY    75  73  94 W6        29.99S
VALDOSTA       CLOUDY    71  71 100 CALM      30.01R FOG
MOULTRIE       CLEAR     75  73  94 CALM      30.02S FOG
BLAKELY        CLOUDY    77  73  88 CALM      30.00S
ALBANY         CLEAR     73  72  96 CALM      30.01F
TIFTON         FAIR      75  75 100 CALM      30.01S
FITZGERALD     FAIR      76  76 100 SW3       30.02S
CORDELE        FAIR      79  73  81 SW5       30.01R
AMERICUS       FAIR      73  73 100 SW3       30.00F
HOMERVILLE     FAIR      73  73 100 CALM      30.00S FOG
$$

!GMZ750-755-770-775-241000
...Coastal and Buoy Obs...

STATION/POSITION TIME  TEMP    WIND        PRES    VSBY  WAVE
                       AIR SEA DIR/SP/G                  HT/PER
                 (UTC) (F)     (DEG/KT/KT) (MB)    (MI)  (FT/S)
KEATON BEACH     0900   81     260/  7/  8 1015.6R
CEDAR KEY        0900   82     180/  5/  6 1016.4F
C TOWER          0900   80     230/ 11/ 12 1016.4R
APALACHICOLA BUO 0850   80 83  190/  6/  8 1015.7F         2/ 7
PANAMA CITY BUOY 0850   80 81  200/  6/  8 1015.4F         3/ 6
MOBILE BUOY      0900   81 82  190/  8/ 10 1015.5
ORANGE BCH AL BU 0850   80 81  200/ 14/ 14 1014.6F         3/ 7
$$




USA.gov is the U.S. government's official web portal to all federal, state and local government web resources and services.